sat.trackr.live / text

‹ back to catalog

STARLINK-35274

NORAD 66073 · 2025-235R

PAYLOAD ACTIVE UNKNOWN

§ Identity

Operator
Country
US
Launch date
2025-10-19
Launch site
AFETR
Launch vehicle
Mass (kg)
RCS (m²)

Purposes: comms

External: N2YO · Heavens-Above · Gunter

§ Orbital elements

Epoch: 2026-09-18T23:43:29.052480Z

Period
93.85 min
Inclination
53.1602°
Eccentricity
0.0000841
Mean motion
15.34388661 rev/d
Perigee alt
462.2 km
Apogee alt
463.3 km
Semi-major
6,840.9 km
B*
3.9995e-4
RAAN
66.9066°
Arg perigee
79.8845°
Mean anomaly
280.2253°
Rev number
5,252

§ Raw data

STARLINK-352741 66073U 25235R   26261.98853070  .00013156  00000+0  39995-3 0  99992 66073  53.1602  66.9066 0000841  79.8845 280.2253 15.34388661 52529

JSON: /api/v1/satellites/66073 · /tle

For live sub-satellite position, see the globe view (requires WebGL).

§ Visibility from observer

Set your observer location to see the next 7 days of passes ≥ 10°. The values pass through the URL so the page stays shareable.

No JS? Fill the form by hand. The geolocation button needs JavaScript.